Snowfall_Accumulation
0.0 0.0 0.0 0.0 0.0 0.0 0.1 0.2 0.3 0.6 0.5 0.8 1.1 1.1 1.3 1.9 1.8 1.9 2.3 1.9 1.6 1.0 0.6 0.4 0.1 0.0 0.0 0.0 0.0 0.0 0.0 0.0 0.0 0.0 0.0 0.0 0.0 0.0 0.0 0.0 0.0 0.0 0.0
0.0 0.0 0.1 0.1 0.1 0.5 2.0 2.0 1.4 3.3 1.7 2.8 2.3 2.8 2.7 2.5 2.6 2.1 2.3 1.5 1.0 0.7 0.3 0.1 0.0 0.0 0.0 0.0 0.0 0.0 0.0 0.0 0.0 0.0 0.0 0.0 0.0 0.0 0.0 0.0 0.0 0.0 0.0
0.0 0.1 0.3 1.1 2.1 3.7 4.9 3.6 2.4 3.8 4.7 3.3 2.9 3.2 4.3 4.1 2.8 1.9 1.3 0.8 0.5 0.2 0.1 0.1 0.0 0.0 0.0 0.0 0.0 0.0 0.0 0.0 0.0 0.0 0.0 0.0 0.0 0.0 0.0 0.0 0.0 0.0 0.0
0.3 0.4 0.9 1.5 1.7 3.3 4.7 5.6 5.3 3.8 3.7 4.2 4.5 5.5 4.7 3.7 2.7 1.8 0.9 0.5 0.2 0.2 0.1 0.0 0.0 0.0 0.0 0.0 0.0 0.0 0.0 0.0 0.1 0.1 0.1 0.1 0.1 0.1 0.1 0.1 0.2 0.1 0.1
0.9 2.6 4.4 2.8 3.0 3.9 5.5 5.7 5.2 5.2 5.6 5.0 4.9 3.9 3.0 1.9 1.1 0.5 0.3 0.3 0.1 0.1 0.0 0.0 0.0 0.0 nan nan 0.0 0.0 0.0 0.0 0.2 0.2 0.2 0.2 0.1 0.3 0.3 0.2 0.3 0.2 0.2
2.6 7.3 5.3 5.0 4.6 4.5 5.1 5.5 5.4 5.4 5.4 3.9 3.6 2.3 1.7 1.0 nan nan 0.1 0.0 0.0 0.0 0.0 0.0 0.0 0.0 0.0 nan nan nan nan 0.2 0.1 0.3 0.2 0.2 0.0 0.2 0.3 0.5 0.7 1.5 3.4
5.0 6.3 6.8 6.1 5.4 5.5 4.4 3.6 3.8 3.4 2.7 2.3 1.5 1.1 0.3 0.2 nan nan nan 0.0 0.0 0.0 0.0 0.0 0.0 0.0 0.0 0.0 nan nan nan nan nan 0.0 0.1 0.2 0.5 0.5 0.3 0.5 0.8 1.7 1.7
6.7 7.4 7.3 5.9 4.5 3.7 3.7 3.4 2.8 1.7 1.1 0.7 0.6 0.3 0.1 0.0 nan nan nan 0.0 0.0 0.0 0.0 0.0 0.0 0.0 0.0 0.0 0.0 0.1 0.0 0.0 0.0 0.0 0.1 0.1 0.1 0.1 0.2 0.5 1.0 1.1 2.7
7.5 7.4 6.1 4.5 4.5 3.8 3.6 3.6 2.0 0.8 0.6 0.3 0.1 0.0 0.0 0.0 nan nan 0.0 0.0 0.0 0.0 0.0 0.0 0.0 0.0 nan nan 0.5 0.2 0.1 0.0 nan nan nan nan nan nan nan 2.5 9.9 14.0 9.8
7.1 6.3 5.2 3.5 3.2 3.0 1.7 1.1 1.1 0.5 0.4 0.4 0.0 0.0 0.0 0.0 nan nan nan 0.2 0.0 0.3 0.0 0.0 0.0 0.0 nan nan 0.4 0.6 1.1 0.5 0.7 1.5 0.9 0.7 nan nan nan 0.7 2.9 12.6 9.7
3.6 4.2 4.1 3.1 2.2 1.4 1.0 0.6 0.3 0.3 0.1 0.1 0.1 0.1 0.1 0.0 0.0 nan nan 0.1 0.5 1.0 1.0 0.9 0.5 nan nan nan nan 1.0 1.0 0.7 1.5 1.9 2.2 2.7 1.9 1.5 2.1 1.7 1.5 3.9 10.6
1.7 1.9 1.8 1.9 1.2 0.7 0.9 0.3 0.6 0.2 0.3 0.3 0.4 0.8 0.9 0.1 nan nan nan nan nan 1.2 0.9 0.7 0.6 nan nan nan 0.9 nan nan 1.4 4.5 5.3 4.7 4.2 3.6 3.5 3.4 3.8 2.6 3.0 3.4
1.8 3.0 2.1 1.5 1.2 0.7 1.2 0.7 2.0 0.5 1.6 0.6 2.0 2.0 1.7 1.5 1.2 nan nan nan nan 1.3 1.0 1.1 nan nan nan nan nan nan 0.8 5.3 5.9 7.8 5.8 4.6 3.7 3.5 4.3 6.3 4.8 3.8 3.8
4.2 2.4 1.3 1.5 0.8 1.1 2.0 2.0 2.9 2.6 2.5 2.6 3.2 3.3 2.4 2.4 1.5 1.4 2.3 1.4 1.0 2.6 nan 2.4 nan 2.0 nan nan 2.3 2.9 3.7 4.7 4.8 6.3 7.0 5.4 5.4 8.0 8.3 5.8 7.1 6.1 10.1
3.5 1.6 1.3 2.1 2.4 1.6 1.5 2.4 2.1 0.8 2.3 5.2 6.5 5.2 7.1 6.7 3.7 1.5 4.6 5.2 4.6 5.1 4.9 7.1 6.4 5.3 5.5 4.9 5.6 5.8 5.6 5.8 6.8 7.2 8.3 8.9 9.5 8.8 7.9 6.1 6.8 8.2 10.8
2.6 3.5 3.0 3.0 2.6 2.3 2.6 2.8 nan nan nan nan nan 3.9 5.5 nan nan nan nan nan nan nan 11.9 12.7 7.4 6.1 6.0 6.3 8.1 8.3 8.2 7.5 7.7 9.0 10.4 9.8 11.2 10.1 9.9 10.1 9.3 10.3 11.7
5.6 4.2 4.9 4.2 3.9 4.0 3.9 4.2 6.8 3.6 nan nan nan nan nan nan nan nan nan nan nan nan 19.0 10.8 10.0 7.9 8.3 8.4 9.2 8.6 10.5 8.8 7.2 10.0 10.0 10.6 11.5 11.9 12.6 11.6 10.1 9.3 12.4
5.2 2.1 4.9 4.6 4.2 4.6 4.7 4.9 5.3 7.5 9.0 7.1 nan nan nan nan nan nan nan nan 19.4 nan 13.7 17.0 16.7 14.6 13.4 12.5 11.1 11.7 11.9 11.6 10.9 10.3 10.6 13.1 15.1 16.2 16.2 15.6 12.3 14.7 14.4
6.7 5.1 5.7 5.4 4.9 5.2 5.7 5.3 5.4 6.3 7.0 9.4 10.0 9.4 4.5 nan nan nan nan 14.2 18.8 17.0 16.8 17.0 14.4 15.4 14.3 14.9 14.4 15.6 14.2 15.5 14.3 17.0 17.0 18.0 16.9 18.1 18.3 14.3 13.1 8.3 9.1
7.9 3.7 5.8 9.0 8.5 7.6 5.9 8.0 8.1 8.7 10.3 11.5 11.6 10.5 13.1 13.1 17.4 17.1 14.9 19.6 20.7 19.3 17.2 18.2 18.1 20.1 21.7 20.8 20.4 19.2 20.1 21.2 19.8 19.4 19.1 18.9 18.1 18.9 16.4 19.3 17.5 16.9 17.2
13.5 12.1 3.3 11.9 13.5 13.9 14.1 12.6 11.6 14.5 13.1 14.3 12.1 11.3 nan 17.4 19.2 19.5 19.7 19.9 21.3 22.8 19.9 20.6 21.6 26.5 27.1 29.2 26.1 25.7 24.5 18.1 20.5 21.7 22.4 22.4 22.1 29.3 17.7 14.7 19.0 19.6 19.2
16.4 16.8 16.6 17.9 14.4 15.3 17.0 14.1 14.9 15.0 14.9 13.9 12.1 12.4 nan 16.8 18.1 18.5 21.0 24.2 27.9 28.9 29.9 33.3 32.4 33.7 31.2 30.2 28.1 26.6 23.6 25.4 26.1 25.1 21.6 22.6 25.4 24.2 22.8 18.8 19.0 17.5 20.2
15.7 15.0 15.9 16.1 15.8 7.5 17.3 19.1 18.3 18.1 17.7 19.0 17.7 19.0 20.7 22.5 22.3 23.1 28.1 30.3 27.1 26.5 28.2 29.5 28.3 27.9 26.3 28.0 25.6 24.9 26.5 27.1 26.8 31.2 27.1 26.6 26.3 27.8 25.2 23.9 21.6 24.2 22.7
15.2 15.3 15.3 18.7 18.1 17.1 19.2 20.1 18.5 7.3 19.4 20.8 27.3 24.7 19.5 22.2 27.5 23.5 23.8 26.2 23.6 31.3 25.8 26.7 24.1 23.8 24.5 30.3 34.6 33.8 35.5 36.5 35.9 34.0 32.2 27.5 26.2 21.4 23.8 25.7 21.7 20.6 19.6
19.2 18.3 18.2 17.4 22.2 20.1 19.3 22.0 18.9 23.1 25.2 22.2 24.3 20.6 21.2 19.9 20.6 25.0 24.1 21.6 23.3 22.0 20.2 20.0 20.2 20.5 20.9 21.8 26.4 30.2 28.3 4.9 20.2 5.3 30.6 25.3 27.7 27.2 26.8 24.0 22.6 21.5 19.4
17.2 18.4 19.0 19.4 19.4 20.3 20.7 20.3 20.7 18.2 21.0 21.6 20.7 21.0 19.2 19.2 18.8 20.4 19.6 19.8 17.5 18.1 18.6 19.6 19.6 18.3 17.5 18.7 19.4 7.5 4.6 4.2 25.4 4.7 29.6 28.3 28.6 26.4 25.7 25.8 24.3 23.7 20.8
Water_Equivalent
0.00 0.00 0.00 0.00 0.00 0.00 0.03 0.05 0.09 0.13 0.11 0.18 0.27 0.32 0.35 0.44 0.37 0.33 0.37 0.30 0.23 0.15 0.11 0.05 0.02 0.01 0.00 0.00 0.00 0.00 0.00 0.00 0.00 0.00 0.00 0.00 0.00 0.00 0.00 0.00 0.00 0.00 0.00
0.00 0.00 0.02 0.03 0.03 0.10 0.43 0.42 0.30 0.71 0.42 0.76 0.67 0.67 0.58 0.43 0.44 0.35 0.35 0.24 0.15 0.10 0.04 0.01 0.00 0.00 0.00 0.00 0.00 0.00 0.00 0.00 0.00 0.00 0.00 0.00 0.00 0.00 0.00 0.00 0.00 0.00 0.00
0.00 0.03 0.08 0.26 0.47 0.79 1.04 0.84 0.65 1.03 1.15 0.86 0.65 0.62 0.74 0.69 0.45 0.29 0.19 0.13 0.07 0.03 0.02 0.01 0.00 0.00 0.00 0.00 0.00 0.00 0.00 0.00 0.00 0.01 0.01 0.00 0.01 0.01 0.02 0.01 0.00 0.00 0.00
0.07 0.09 0.20 0.35 0.37 0.73 1.10 1.48 1.41 1.07 0.96 0.97 0.91 1.04 0.88 0.73 0.48 0.28 0.13 0.08 0.03 0.03 0.02 0.01 0.00 0.00 0.00 0.00 0.00 0.00 0.00 0.01 0.02 0.03 0.04 0.04 0.04 0.05 0.04 0.05 0.08 0.05 0.05
0.22 0.61 1.00 0.62 0.68 0.98 1.44 1.50 1.28 1.17 1.10 0.95 0.90 0.64 0.49 0.30 0.18 0.08 0.05 0.04 0.02 0.01 0.00 0.00 0.00 0.00 nan nan 0.00 0.00 0.00 0.02 0.06 0.07 0.07 0.06 0.06 0.09 0.09 0.07 0.11 0.07 0.06
0.62 1.36 1.15 1.29 1.26 1.13 1.08 1.05 1.00 0.93 0.93 0.63 0.56 0.38 0.28 0.16 nan nan 0.01 0.01 0.00 0.00 0.00 0.00 0.00 0.00 0.00 nan nan nan nan 0.02 0.01 0.11 0.08 0.06 0.00 0.08 0.10 0.13 0.17 0.31 0.48
1.03 1.53 1.78 1.39 1.08 1.05 0.81 0.66 0.68 0.55 0.41 0.33 0.22 0.16 0.05 0.03 nan nan nan 0.00 0.00 0.00 0.00 0.00 0.00 0.00 0.01 0.00 nan nan nan nan nan 0.00 0.01 0.03 0.04 0.04 0.03 0.06 0.11 0.29 0.30
1.41 1.43 1.38 1.10 0.82 0.72 0.64 0.50 0.39 0.24 0.15 0.10 0.09 0.05 0.01 0.01 nan nan nan 0.00 0.00 0.00 0.00 0.00 0.00 0.00 0.00 0.00 0.00 0.01 0.00 0.00 0.00 0.00 0.01 0.01 0.01 0.01 0.03 0.07 0.15 0.16 0.42
1.34 1.24 1.02 0.76 0.71 0.57 0.48 0.46 0.26 0.11 0.08 0.04 0.02 0.00 0.00 0.00 nan nan 0.00 0.00 0.00 0.00 0.00 0.00 0.00 0.00 nan nan 0.05 0.03 0.02 0.01 nan nan nan nan nan nan nan 0.54 2.01 2.59 1.52
0.99 0.95 0.77 0.49 0.46 0.39 0.22 0.14 0.15 0.07 0.05 0.13 0.01 0.01 0.00 0.00 nan nan nan 0.08 0.00 0.11 0.01 0.00 0.01 0.00 nan nan 0.05 0.08 0.17 0.08 0.10 0.37 0.16 0.14 nan nan nan 0.11 0.59 2.05 1.47
0.46 0.53 0.52 0.39 0.28 0.18 0.12 0.09 0.05 0.04 0.02 0.03 0.03 0.02 0.02 0.01 0.00 nan nan 0.04 0.16 0.28 0.27 0.23 0.15 nan nan nan nan 0.15 0.15 0.07 0.25 0.34 0.39 0.54 0.40 0.30 0.45 0.34 0.25 0.64 1.43
0.21 0.24 0.23 0.28 0.17 0.10 0.20 0.07 0.16 0.06 0.08 0.07 0.09 0.19 0.24 0.02 nan nan nan nan nan 0.33 0.19 0.18 0.15 nan nan nan 0.24 nan nan 0.35 1.03 1.16 0.98 0.79 0.60 0.57 0.53 0.56 0.31 0.42 0.51
0.31 0.52 0.40 0.30 0.25 0.16 0.28 0.14 0.49 0.13 0.37 0.11 0.42 0.41 0.34 0.35 0.32 nan nan nan nan 0.33 0.24 0.22 nan nan nan nan nan nan 0.27 0.99 1.18 1.47 0.97 0.68 0.51 0.45 0.43 0.64 0.46 0.38 0.38
0.79 0.37 0.21 0.27 0.18 0.20 0.44 0.46 0.67 0.56 0.50 0.54 0.65 0.65 0.47 0.48 0.33 0.34 0.58 0.36 0.26 0.61 nan 0.52 nan 0.40 nan nan 0.54 0.56 0.71 0.81 0.80 0.95 0.95 0.68 0.67 0.94 0.94 0.67 0.86 0.74 1.24
0.53 0.22 0.22 0.40 0.45 0.28 0.29 0.51 0.42 0.18 0.49 1.08 1.39 1.01 1.28 1.22 0.71 0.32 1.02 1.18 1.08 1.10 1.22 1.52 1.29 0.95 0.95 0.84 1.00 1.00 0.96 0.94 1.07 1.07 1.12 1.13 1.14 1.07 0.96 0.76 0.83 1.07 1.35
0.31 0.50 0.50 0.51 0.44 0.38 0.40 0.45 nan nan nan nan nan 0.82 1.25 nan nan nan nan nan nan nan 2.74 2.57 1.24 1.00 0.89 0.94 1.19 1.11 1.07 1.11 1.01 1.17 1.34 1.29 1.37 1.19 1.16 1.30 1.22 1.33 1.42
0.72 0.47 0.64 0.56 0.52 0.57 0.60 0.68 0.88 0.62 nan nan nan nan nan nan nan nan nan nan nan nan 4.07 1.94 1.62 1.16 1.17 1.11 1.19 1.11 1.22 1.05 0.75 1.22 1.17 1.27 1.39 1.50 1.65 1.44 1.25 1.16 1.63
0.67 0.68 0.70 0.67 0.65 0.71 0.76 0.79 0.86 1.07 1.22 0.98 nan nan nan nan nan nan nan nan 3.81 nan 2.83 2.99 2.56 2.10 1.73 1.59 1.36 1.37 1.37 1.31 1.24 1.23 1.29 1.74 2.05 2.20 2.12 2.09 1.60 1.97 1.88
0.78 0.65 0.73 0.72 0.68 0.74 0.83 0.74 0.81 0.85 0.89 1.16 1.18 1.24 1.04 nan nan nan nan 2.45 3.18 2.75 2.70 2.77 2.31 2.23 1.85 1.98 1.87 2.10 1.80 1.92 1.78 2.32 2.37 2.55 2.37 2.53 2.54 1.89 1.62 1.44 1.52
0.87 0.93 0.86 1.12 1.02 0.91 0.66 0.87 0.83 0.89 1.03 1.19 1.22 1.10 1.83 2.12 2.81 2.84 2.37 3.34 3.37 2.99 2.55 2.75 2.76 3.11 3.29 3.08 2.98 2.75 2.82 3.01 2.74 2.74 2.70 2.67 2.55 2.75 2.02 2.63 2.34 2.08 2.32
1.47 1.24 1.08 1.18 1.43 1.48 1.52 1.27 1.11 1.50 1.31 1.51 1.23 1.16 nan 2.22 2.31 2.49 2.81 2.66 3.08 3.34 2.76 2.98 3.14 4.10 4.26 4.72 3.96 3.82 3.53 2.30 2.82 3.07 3.24 3.23 3.16 4.06 2.47 1.82 2.50 2.65 2.57
1.70 1.77 1.74 1.90 1.37 1.49 1.75 1.32 1.43 1.47 1.43 1.30 1.09 1.22 nan 1.70 1.90 1.97 2.23 2.82 3.45 3.59 4.09 4.76 4.65 5.05 4.49 4.22 3.82 3.59 3.01 3.42 3.68 3.44 2.80 2.95 3.48 3.11 3.09 2.30 2.40 2.14 2.69
1.50 1.33 1.45 1.47 1.44 1.59 1.66 1.97 1.81 1.78 1.68 1.87 1.71 1.77 1.98 2.43 2.28 2.29 3.20 3.53 2.93 2.80 3.16 3.41 3.23 3.13 2.98 3.32 2.97 2.87 3.04 3.27 3.33 4.35 3.15 3.20 3.12 3.54 3.22 2.95 2.65 2.99 2.86
1.35 1.37 1.37 1.85 1.69 1.50 1.80 1.92 1.68 1.69 1.82 2.00 3.04 2.57 1.73 2.15 2.96 2.25 2.33 2.75 2.32 3.74 2.74 2.92 2.46 2.42 2.62 3.84 4.84 4.73 5.11 5.36 5.12 4.72 4.27 3.07 2.96 2.57 2.64 3.07 2.48 2.39 2.08
1.79 1.58 1.60 1.50 2.25 1.86 1.74 2.12 1.62 2.22 2.57 2.10 2.49 1.89 1.93 1.77 1.91 2.70 2.53 2.11 2.36 2.19 1.92 1.90 1.97 2.04 2.10 2.23 3.04 3.88 4.07 1.61 3.03 1.74 3.77 2.73 3.15 3.16 3.03 2.62 2.47 2.21 1.98
1.46 1.58 1.66 1.71 1.69 1.86 1.95 1.91 1.99 1.61 2.02 2.15 1.99 2.04 1.76 1.76 1.75 2.10 1.94 1.97 1.61 1.69 1.78 1.94 1.94 1.75 1.65 1.84 1.96 1.84 1.53 1.38 3.25 1.55 3.18 2.74 2.95 2.65 2.59 2.63 2.44 2.37 1.98
SL_Ratio
nan nan nan nan nan nan 2.7 3.0 4.0 4.4 4.2 4.3 3.9 3.5 3.8 4.4 5.0 5.7 6.2 6.3 6.8 6.5 5.9 6.6 6.8 7.0 7.1 6.7 5.0 nan nan nan nan nan nan nan nan nan nan nan nan nan nan
nan nan 2.6 2.5 2.8 4.4 4.6 4.8 4.6 4.6 3.9 3.7 3.4 4.2 4.6 5.6 6.0 6.1 6.5 6.5 6.5 6.8 6.9 7.1 7.5 7.5 nan nan nan nan nan nan nan nan nan nan nan nan nan nan nan nan nan
nan 3.2 3.6 4.2 4.5 4.7 4.7 4.3 3.8 3.7 4.1 3.9 4.5 5.2 5.8 5.9 6.3 6.4 6.7 6.5 6.7 6.8 7.0 6.9 10.0 nan nan nan nan nan nan nan nan 3.1 2.5 2.5 2.5 2.5 2.6 2.7 nan nan nan
3.8 4.1 4.4 4.5 4.6 4.6 4.3 3.8 3.7 3.5 3.8 4.3 5.0 5.2 5.3 5.1 5.6 6.3 6.7 6.9 7.0 7.1 6.9 6.3 nan nan nan nan nan nan nan 2.8 2.8 2.5 2.5 2.5 2.5 2.5 2.5 2.5 2.9 2.5 2.5
4.1 4.3 4.4 4.5 4.4 4.0 3.8 3.8 4.1 4.5 5.1 5.3 5.5 6.1 6.2 6.3 6.2 6.8 6.7 7.0 7.3 7.2 7.5 nan nan nan nan nan 0.0 5.0 2.5 2.9 2.7 2.7 2.5 2.5 2.5 2.8 3.0 3.0 3.0 2.8 3.1
4.3 5.4 4.6 3.9 3.6 4.0 4.7 5.3 5.4 5.8 5.8 6.2 6.4 6.1 6.2 6.0 nan nan 6.8 6.3 7.5 nan nan nan nan nan nan nan nan nan nan 8.9 8.1 3.0 2.8 2.9 4.0 3.0 3.5 3.7 4.0 4.9 7.0
4.8 4.1 3.8 4.4 5.0 5.2 5.4 5.4 5.7 6.2 6.6 7.1 6.8 6.6 6.5 6.1 nan nan nan 5.0 2.5 nan nan nan nan nan 2.6 nan nan nan nan nan nan nan 5.0 5.0 11.4 11.6 10.2 8.2 7.1 5.9 5.6
4.7 5.2 5.3 5.3 5.5 5.2 5.8 6.8 7.3 7.2 7.4 7.1 6.7 6.5 6.5 6.1 nan nan nan nan nan nan nan nan nan nan nan nan 15.0 7.1 5.0 5.0 5.0 nan 9.1 10.2 10.3 5.8 6.1 6.3 6.7 7.0 6.3
5.6 5.9 6.0 6.0 6.3 6.8 7.5 7.9 7.8 7.5 7.4 7.4 7.0 6.0 5.0 nan nan nan nan nan nan nan nan nan nan nan nan nan 9.1 7.3 5.0 5.0 nan nan nan nan nan nan nan 4.5 4.9 5.4 6.4
7.2 6.7 6.7 7.1 7.0 7.8 7.9 7.7 7.5 7.2 7.1 3.4 5.0 2.5 5.0 nan nan nan nan 2.5 3.3 2.7 2.8 2.5 2.7 5.0 nan nan 7.9 6.8 6.6 6.4 6.6 4.1 5.6 5.3 nan nan nan 5.7 4.9 6.2 6.6
7.8 7.8 7.9 8.0 7.8 7.8 7.7 7.2 6.4 6.3 5.3 3.7 3.7 3.3 2.9 2.5 3.0 nan nan 2.5 3.1 3.6 3.6 3.9 3.6 nan nan nan nan 6.5 6.9 9.2 5.8 5.5 5.5 4.9 4.8 5.0 4.6 5.1 6.1 6.1 7.4
7.9 8.1 7.8 6.8 7.0 6.9 4.4 4.0 3.6 3.4 3.7 4.1 4.2 3.9 3.7 3.6 nan nan nan nan nan 3.8 4.6 3.9 3.8 nan nan nan 3.8 nan nan 4.1 4.4 4.6 4.8 5.3 5.9 6.1 6.4 6.9 8.4 7.2 6.7
5.9 5.7 5.3 5.0 4.8 4.5 4.2 4.6 4.1 4.0 4.3 5.0 4.7 4.8 4.9 4.3 3.6 nan nan nan nan 4.0 3.9 4.8 nan nan nan nan nan nan 3.0 5.4 5.0 5.3 6.0 6.7 7.2 7.7 10.1 9.8 10.4 10.1 10.1
5.3 6.5 6.1 5.5 4.6 5.2 4.5 4.3 4.3 4.6 5.0 4.8 4.9 5.1 5.1 5.1 4.6 4.0 3.9 3.8 3.7 4.3 nan 4.6 nan 4.9 nan nan 4.2 5.1 5.2 5.8 6.0 6.6 7.4 7.9 8.0 8.5 8.9 8.7 8.3 8.2 8.1
6.5 7.5 5.6 5.2 5.3 5.6 5.4 4.8 5.0 4.8 4.6 4.8 4.7 5.1 5.5 5.5 5.2 4.7 4.5 4.4 4.3 4.6 4.0 4.7 5.0 5.5 5.8 5.8 5.6 5.8 5.8 6.1 6.4 6.7 7.4 7.9 8.3 8.2 8.2 8.1 8.2 7.7 8.0
8.2 6.8 6.1 5.9 5.9 6.1 6.4 6.4 nan nan nan nan nan 4.8 4.4 nan nan nan nan nan nan nan 4.3 5.0 6.0 6.1 6.7 6.7 6.8 7.5 7.6 6.8 7.7 7.7 7.8 7.6 8.1 8.5 8.5 7.8 7.7 7.7 8.2
7.9 8.8 7.7 7.6 7.5 6.9 6.5 6.2 7.7 5.9 nan nan nan nan nan nan nan nan nan nan nan nan 4.7 5.6 6.2 6.8 7.1 7.6 7.7 7.8 8.6 8.4 9.6 8.2 8.6 8.3 8.3 7.9 7.6 8.1 8.1 8.0 7.6
7.7 3.0 7.0 6.9 6.5 6.5 6.2 6.2 6.1 7.0 7.3 7.2 nan nan nan nan nan nan nan nan 5.1 nan 4.9 5.7 6.5 6.9 7.8 7.8 8.2 8.5 8.7 8.8 8.8 8.3 8.2 7.5 7.4 7.4 7.6 7.5 7.7 7.4 7.7
8.6 8.0 7.7 7.5 7.2 6.9 6.9 7.1 6.6 7.4 7.9 8.1 8.5 7.6 4.3 nan nan nan nan 5.8 5.9 6.2 6.2 6.1 6.2 6.9 7.7 7.5 7.7 7.5 7.9 8.1 8.0 7.3 7.2 7.0 7.1 7.1 7.2 7.6 8.0 5.7 6.0
9.2 4.0 6.8 8.0 8.3 8.4 9.0 9.2 9.8 9.8 9.9 9.6 9.5 9.5 7.2 6.1 6.2 6.0 6.3 5.9 6.1 6.4 6.8 6.6 6.6 6.5 6.6 6.8 6.8 7.0 7.1 7.0 7.3 7.1 7.1 7.1 7.1 6.9 8.1 7.3 7.5 8.1 7.4
9.2 9.7 3.0 10.1 9.5 9.4 9.3 9.9 10.4 9.7 10.0 9.5 9.9 9.7 nan 7.8 8.3 7.9 7.0 7.5 6.9 6.8 7.2 6.9 6.9 6.5 6.3 6.2 6.6 6.7 6.9 7.9 7.3 7.1 6.9 6.9 7.0 7.2 7.2 8.1 7.6 7.4 7.5
9.6 9.5 9.5 9.5 10.5 10.3 9.7 10.6 10.4 10.2 10.4 10.7 11.1 10.1 nan 9.9 9.5 9.4 9.4 8.6 8.1 8.1 7.3 7.0 7.0 6.7 7.0 7.1 7.4 7.4 7.8 7.4 7.1 7.3 7.7 7.6 7.3 7.8 7.4 8.2 7.9 8.2 7.5
10.5 11.3 10.9 11.0 11.0 4.7 10.4 9.7 10.1 10.2 10.5 10.1 10.4 10.8 10.4 9.3 9.8 10.1 8.8 8.6 9.2 9.5 8.9 8.7 8.8 8.9 8.8 8.4 8.6 8.7 8.7 8.3 8.1 7.2 8.6 8.3 8.4 7.9 7.8 8.1 8.2 8.1 7.9
11.3 11.1 11.2 10.1 10.7 11.4 10.7 10.5 11.0 4.3 10.7 10.4 9.0 9.6 11.2 10.3 9.3 10.5 10.2 9.5 10.2 8.4 9.4 9.2 9.8 9.9 9.4 7.9 7.2 7.2 7.0 6.8 7.0 7.2 7.5 9.0 8.9 8.4 9.0 8.4 8.8 8.6 9.4
10.8 11.6 11.4 11.6 9.9 10.8 11.1 10.4 11.7 10.4 9.8 10.5 9.7 10.9 11.0 11.3 10.7 9.3 9.5 10.3 9.9 10.0 10.5 10.5 10.2 10.0 9.9 9.8 8.7 7.8 6.9 3.0 6.7 3.0 8.1 9.3 8.8 8.6 8.9 9.1 9.2 9.7 9.8
11.8 11.6 11.5 11.4 11.5 10.9 10.6 10.6 10.4 11.4 10.4 10.1 10.4 10.3 10.9 10.9 10.7 9.7 10.1 10.1 10.9 10.7 10.4 10.1 10.1 10.5 10.6 10.1 9.9 4.1 3.0 3.0 7.8 3.0 9.3 10.3 9.7 10.0 9.9 9.8 10.0 10.0 10.5